KLM604 KLAX-EHAM

Flight info

Callsign KLM604
Flight time N/A
Altitude 35000
Route ORCKA5 LAS Q70 BLIPP Q842 WINEN DCT KU54O DCT KD87U DCT KP18Y DCT AMENU DCT 55N095W/N0474F370 5830N09000W 63N080W 66N070W/M083F370 DCT CANEL DCT 68N060W 69N050W 6930N04000W/M083F390 69N030W 6730N02000W 64N010W DCT RIXUN/N0473F390 DCT ROKAN DCT TOPPA TOPPA2A
Aircraft B772/H-SDE2E3FGHIJ5LORVWXY/LB1D1

Departure

Time 2026-04-24 01:49
Airport Los Angeles International Airport (KLAX)

Arrival

Time N/A
Airport Amsterdam Airport Schiphol (EHAM)
Time Latitude Longitude Altitude Speed Heading
2026-04-24 01:29 33.94279 -118.41560 97 ft 0 kts 83°
2026-04-24 01:34 33.94278 -118.41575 97 ft 3 kts 83°
2026-04-24 01:35 33.94276 -118.41599 97 ft 3 kts 83°
2026-04-24 01:35 33.94273 -118.41623 96 ft 2 kts 84°
2026-04-24 01:35 33.94271 -118.41643 99 ft 3 kts 60°
2026-04-24 01:35 33.94259 -118.41658 97 ft 3 kts 12°
2026-04-24 01:36 33.94240 -118.41659 95 ft 3 kts 353°
2026-04-24 01:36 33.94236 -118.41659 95 ft 0 kts 353°
2026-04-24 01:39 33.94250 -118.41661 97 ft 5 kts 353°
2026-04-24 01:40 33.94284 -118.41666 97 ft 5 kts 353°
2026-04-24 01:40 33.94319 -118.41672 98 ft 5 kts 348°
2026-04-24 01:40 33.94348 -118.41693 97 ft 5 kts 315°
2026-04-24 01:40 33.94358 -118.41732 99 ft 5 kts 274°
2026-04-24 01:41 33.94371 -118.41770 98 ft 5 kts 310°
2026-04-24 01:41 33.94405 -118.41783 99 ft 7 kts 351°
2026-04-24 01:41 33.94457 -118.41792 98 ft 8 kts 351°
2026-04-24 01:41 33.94509 -118.41801 98 ft 8 kts 354°
2026-04-24 01:42 33.94561 -118.41808 100 ft 8 kts 353°
2026-04-24 01:42 33.94613 -118.41815 98 ft 8 kts 353°
2026-04-24 01:42 33.94661 -118.41821 98 ft 6 kts 354°
2026-04-24 01:42 33.94700 -118.41821 99 ft 6 kts 11°
2026-04-24 01:43 33.94727 -118.41790 100 ft 6 kts 70°
2026-04-24 01:43 33.94731 -118.41742 101 ft 6 kts 83°
2026-04-24 01:43 33.94736 -118.41693 97 ft 6 kts 84°
2026-04-24 01:43 33.94744 -118.41613 98 ft 12 kts 82°
2026-04-24 01:44 33.94756 -118.41512 98 ft 12 kts 82°
2026-04-24 01:44 33.94771 -118.41412 100 ft 12 kts 72°
2026-04-24 01:44 33.94790 -118.41312 101 ft 12 kts 82°
2026-04-24 01:44 33.94800 -118.41212 100 ft 12 kts 82°
2026-04-24 01:45 33.94812 -118.41111 99 ft 12 kts 84°
2026-04-24 01:45 33.94821 -118.41009 99 ft 12 kts 83°
2026-04-24 01:45 33.94832 -118.40908 102 ft 12 kts 83°
2026-04-24 01:45 33.94842 -118.40807 99 ft 12 kts 83°
2026-04-24 01:46 33.94852 -118.40707 99 ft 12 kts 83°
2026-04-24 01:46 33.94863 -118.40606 101 ft 12 kts 83°
2026-04-24 01:46 33.94873 -118.40505 99 ft 12 kts 83°
2026-04-24 01:46 33.94883 -118.40404 99 ft 12 kts 83°
2026-04-24 01:47 33.94894 -118.40303 98 ft 12 kts 83°
2026-04-24 01:47 33.94904 -118.40201 101 ft 12 kts 82°
2026-04-24 01:47 33.94915 -118.40100 100 ft 12 kts 83°
2026-04-24 01:47 33.94925 -118.40000 97 ft 12 kts 83°
2026-04-24 01:48 33.94964 -118.39920 100 ft 11 kts 27°
2026-04-24 01:48 33.95032 -118.39927 99 ft 7 kts 327°
2026-04-24 01:48 33.95040 -118.39964 100 ft 4 kts 263°
2026-04-24 01:48 33.95029 -118.40081 99 ft 36 kts 263°
2026-04-24 01:49 33.94969 -118.40670 102 ft 105 kts 263°
2026-04-24 01:49 33.94854 -118.41782 102 ft 163 kts 263°
2026-04-24 01:49 33.94696 -118.43245 490 ft 181 kts 262°
2026-04-24 01:49 33.94549 -118.44721 1307 ft 179 kts 263°
2026-04-24 01:50 33.94404 -118.46257 1967 ft 185 kts 264°
2026-04-24 01:50 33.94269 -118.47837 2403 ft 197 kts 266°
2026-04-24 01:50 33.94130 -118.49569 2613 ft 215 kts 265°
2026-04-24 01:50 33.93965 -118.51427 2924 ft 230 kts 263°
2026-04-24 01:51 33.93742 -118.53383 3198 ft 247 kts 262°
2026-04-24 01:51 33.93475 -118.55483 3580 ft 259 kts 261°
2026-04-24 01:51 33.93202 -118.57670 4106 ft 267 kts 262°
2026-04-24 01:51 33.92942 -118.59873 4677 ft 269 kts 259°
2026-04-24 01:52 33.92157 -118.61947 5038 ft 278 kts 226°
2026-04-24 01:52 33.90523 -118.63140 5595 ft 279 kts 192°
2026-04-24 01:52 33.88617 -118.63150 6163 ft 280 kts 165°
2026-04-24 01:52 33.86855 -118.62187 6717 ft 280 kts 141°
2026-04-24 01:53 33.85550 -118.60444 7164 ft 283 kts 116°
2026-04-24 01:53 33.85003 -118.58173 7518 ft 287 kts 89°
2026-04-24 01:53 33.85472 -118.55868 7948 ft 288 kts 58°
2026-04-24 01:53 33.86626 -118.53887 8412 ft 291 kts 50°
2026-04-24 01:54 33.87876 -118.51949 8900 ft 295 kts 50°
2026-04-24 01:54 33.89133 -118.49985 9407 ft 298 kts 51°
2026-04-24 01:54 33.90397 -118.47983 9878 ft 302 kts 51°
2026-04-24 01:54 33.91675 -118.45942 10249 ft 310 kts 51°
2026-04-24 01:55 33.93006 -118.43803 10367 ft 328 kts 51°
2026-04-24 01:55 33.94360 -118.41500 10502 ft 346 kts 53°
2026-04-24 01:55 33.95728 -118.39060 10642 ft 364 kts 54°
2026-04-24 01:55 33.97179 -118.36460 10822 ft 382 kts 54°
2026-04-24 01:56 33.98689 -118.33776 11311 ft 392 kts 54°
2026-04-24 01:56 34.00234 -118.31044 11875 ft 399 kts 53°
2026-04-24 01:56 34.01812 -118.28257 12529 ft 403 kts 53°
2026-04-24 01:56 34.03411 -118.25439 13190 ft 408 kts 53°
2026-04-24 01:57 34.05000 -118.22636 13924 ft 410 kts 53°
2026-04-24 01:57 34.06616 -118.19784 14485 ft 415 kts 53°
2026-04-24 01:57 34.08256 -118.16885 14998 ft 421 kts 53°
2026-04-24 01:57 34.09920 -118.13944 15524 ft 427 kts 53°
2026-04-24 01:58 34.11597 -118.10974 16074 ft 431 kts 53°
2026-04-24 01:58 34.13295 -118.07966 16594 ft 435 kts 53°
2026-04-24 01:58 34.15009 -118.04929 17106 ft 440 kts 53°
2026-04-24 01:58 34.16741 -118.01855 17606 ft 444 kts 53°
2026-04-24 01:59 34.18490 -117.98748 18103 ft 449 kts 53°
2026-04-24 01:59 34.20233 -117.95649 18519 ft 454 kts 52°
2026-04-24 01:59 34.22018 -117.92475 18876 ft 458 kts 53°
2026-04-24 01:59 34.23204 -117.90362 19221 ft 458 kts 52°
2026-04-24 02:00 34.23828 -117.89248 19393 ft 458 kts 52°
2026-04-24 02:00 34.25624 -117.86064 19888 ft 458 kts 52°
2026-04-24 02:00 34.27429 -117.82881 20348 ft 461 kts 52°
2026-04-24 02:00 34.29234 -117.79653 20712 ft 466 kts 53°
2026-04-24 02:01 34.31047 -117.76373 21044 ft 471 kts 53°
2026-04-24 02:01 34.32877 -117.73073 21447 ft 472 kts 53°
2026-04-24 02:01 34.34714 -117.69778 21896 ft 474 kts 53°
2026-04-24 02:01 34.36591 -117.66483 22269 ft 477 kts 51°
2026-04-24 02:02 34.38536 -117.63208 22651 ft 480 kts 51°
2026-04-24 02:02 34.40519 -117.59927 23068 ft 483 kts 50°
2026-04-24 02:02 34.42494 -117.56669 23456 ft 486 kts 51°
2026-04-24 02:02 34.44496 -117.53351 23800 ft 489 kts 51°
2026-04-24 02:03 34.48515 -117.46635 24533 ft 494 kts 51°
2026-04-24 02:03 34.50534 -117.43242 24861 ft 497 kts 51°
2026-04-24 02:03 34.52563 -117.39824 25182 ft 500 kts 51°
2026-04-24 02:04 34.54573 -117.36434 25497 ft 503 kts 51°
2026-04-24 02:04 34.56621 -117.32976 25803 ft 505 kts 51°
2026-04-24 02:04 34.58677 -117.29502 26130 ft 508 kts 51°
2026-04-24 02:04 34.60743 -117.26008 26436 ft 510 kts 51°
2026-04-24 02:05 34.62823 -117.22489 26723 ft 513 kts 51°
2026-04-24 02:05 34.64909 -117.18956 27018 ft 515 kts 51°
2026-04-24 02:05 34.67001 -117.15409 27257 ft 518 kts 51°
2026-04-24 02:05 34.69103 -117.11841 27545 ft 521 kts 51°
2026-04-24 02:06 34.71218 -117.08250 27821 ft 523 kts 51°
2026-04-24 02:06 34.73340 -117.04639 28124 ft 525 kts 51°
2026-04-24 02:06 34.75467 -117.01018 28390 ft 528 kts 51°
2026-04-24 02:06 34.77582 -116.97413 28659 ft 530 kts 51°
2026-04-24 02:07 34.79726 -116.93756 28923 ft 532 kts 51°
2026-04-24 02:07 34.81882 -116.90075 29173 ft 534 kts 51°
2026-04-24 02:07 34.84041 -116.86384 29443 ft 536 kts 51°
2026-04-24 02:07 34.86208 -116.82674 29672 ft 537 kts 51°
2026-04-24 02:08 34.88378 -116.78957 29926 ft 539 kts 51°
2026-04-24 02:08 34.90548 -116.75236 30176 ft 539 kts 51°
2026-04-24 02:08 34.92802 -116.71598 30443 ft 536 kts 46°
2026-04-24 02:08 34.95289 -116.68221 30706 ft 533 kts 43°
2026-04-24 02:09 34.97828 -116.64927 30956 ft 533 kts 43°
2026-04-24 02:09 35.00382 -116.61635 31213 ft 533 kts 43°